Location: Waco, TX
(31.5480°N, 97.1670°W)
Time: 00:54:16
(UTC-06:00)

ISS - Pass Details

Date: 20 January 2018
Orbit: 402 x 407 km, 51.6° (Epoch: 21 January)

Event Time Altitude Azimuth Distance (km) Brightness Sun altitude
Rises 03:22:11 0° 335° (NNW) 2,319 - -51.9°
Reaches altitude 10° 03:25:29 10° 11° (N) 1,459 - -51.2°
Maximum altitude 03:26:38 11° 32° (NNE) 1,376 - -51.0°
Drops below altitude 10° 03:27:47 10° 52° (NE) 1,458 - -50.7°
Sets 03:31:05 0° 88° (E) 2,316 - -50.0°
